Find Shiyan 28B-02

NORAD ID: 65226 Int'l Des: 2025-177 Owner: ZZB Country: CN operational
LEOCIRCULAR

Live Position

Loading 3D Globe...

About Shiyan 28B-02

Description loading...

Upcoming Passes

Passes for default location (London). Set your location on the main map for personalized predictions.

Altitude History

Loading altitude history...

Two-Line Element Set

1 65226U 25177A 26105.29108861 .00000566 00000-0 51723-4 0 9991
2 65226 11.0011 343.6849 0003921 229.5088 130.4798 14.29364091 34528
Epoch: Apr 15, 2026 • Age: 4 hours

Current Status

Altitude 791.4 km
Velocity 7.46 km/s
Sub-Earth Point 9.79°N, 93.74°E
Launch Date Aug 17, 2025
Age 0.6 years
Type other

Technical Details

Classification Payload
Mass 2000.00 kg
Dry Mass 2000.00 kg
Total Mass 2000.00 kg
Length 2.50 m
Diameter 2.50 m
Span 5.00 m
Shape Box + 2 Pan
Manufacturer IMICAS
Phase Status In Orbit
Owner/State ZZB/CN

Most Searched